TimeCDT,TemperatureF,Dew PointF,Humidity,Sea Level PressureIn,VisibilityMPH,Wind Direction,Wind SpeedMPH,Gust SpeedMPH,PrecipitationIn,Events,Conditions,WindDirDegrees,DateUTC
12:15 AM,35.6,21.2,56,30.20,10.0,NNE,5.8,-,N/A,,Overcast,30,2013-04-10 05:15:00
12:35 AM,35.6,23.0,60,30.21,10.0,NE,3.5,-,N/A,,Overcast,50,2013-04-10 05:35:00
12:55 AM,35.6,23.0,60,30.21,7.0,East,9.2,16.1,N/A,Snow,Light Snow,80,2013-04-10 05:55:00
1:15 AM,33.8,24.8,70,30.21,7.0,East,5.8,-,N/A,Snow,Light Snow,80,2013-04-10 06:15:00
1:35 AM,33.8,26.6,75,30.22,10.0,East,8.1,16.1,N/A,Snow,Light Snow,100,2013-04-10 06:35:00
1:55 AM,32.0,28.4,87,30.22,3.0,ESE,9.2,-,N/A,Snow,Light Snow,120,2013-04-10 06:55:00
2:15 AM,32.0,28.4,87,30.22,4.0,ESE,8.1,-,N/A,Snow,Light Snow,110,2013-04-10 07:15:00
2:35 AM,32.0,28.4,87,30.13,4.0,East,15.0,-,N/A,Snow,Light Snow,90,2013-04-10 07:35:00
2:55 AM,32.0,28.4,87,30.08,7.0,ENE,11.5,-,N/A,Snow,Light Snow,70,2013-04-10 07:55:00
3:15 AM,32.0,28.4,87,30.12,10.0,East,5.8,-,N/A,,Mostly Cloudy,80,2013-04-10 08:15:00
3:35 AM,32.0,28.4,87,30.06,10.0,East,6.9,-,N/A,,Mostly Cloudy,80,2013-04-10 08:35:00
3:55 AM,32.0,26.6,80,30.14,10.0,South,6.9,-,N/A,,Mostly Cloudy,190,2013-04-10 08:55:00
4:15 AM,32.0,28.4,87,30.14,10.0,West,5.8,-,N/A,,Overcast,270,2013-04-10 09:15:00
4:35 AM,32.0,28.4,87,30.15,10.0,North,4.6,-,N/A,,Overcast,360,2013-04-10 09:35:00
4:55 AM,33.8,23.0,65,30.16,10.0,North,5.8,-,N/A,,Overcast,10,2013-04-10 09:55:00
5:15 AM,33.8,23.0,65,30.19,10.0,NNE,9.2,-,N/A,,Overcast,20,2013-04-10 10:15:00
5:35 AM,32.0,23.0,69,30.15,10.0,ENE,11.5,-,N/A,,Overcast,60,2013-04-10 10:35:00
5:55 AM,32.0,23.0,69,30.15,10.0,NE,10.4,-,N/A,,Overcast,40,2013-04-10 10:55:00
6:15 AM,32.0,23.0,69,30.12,10.0,NE,10.4,-,N/A,,Overcast,40,2013-04-10 11:15:00
6:35 AM,32.0,23.0,69,30.08,10.0,NE,13.8,18.4,N/A,,Overcast,40,2013-04-10 11:35:00
6:55 AM,32.0,23.0,69,30.09,10.0,NE,13.8,-,N/A,,Overcast,40,2013-04-10 11:55:00
7:15 AM,32.0,23.0,69,30.10,10.0,NNE,11.5,18.4,N/A,,Overcast,30,2013-04-10 12:15:00
7:35 AM,32.0,23.0,69,30.10,10.0,NNE,12.7,16.1,N/A,,Overcast,30,2013-04-10 12:35:00
7:55 AM,32.0,23.0,69,30.10,10.0,NNE,12.7,18.4,N/A,,Overcast,30,2013-04-10 12:55:00
8:15 AM,32.0,23.0,69,30.11,10.0,NNE,9.2,-,N/A,,Overcast,30,2013-04-10 13:15:00
8:35 AM,32.0,23.0,69,30.11,10.0,NE,12.7,17.3,N/A,,Overcast,40,2013-04-10 13:35:00
8:55 AM,33.8,21.2,60,30.13,10.0,NE,11.5,-,N/A,,Overcast,40,2013-04-10 13:55:00
9:15 AM,33.8,23.0,65,30.15,10.0,NE,9.2,-,N/A,,Overcast,40,2013-04-10 14:15:00
9:35 AM,33.8,23.0,65,30.14,10.0,NE,9.2,-,N/A,,Overcast,40,2013-04-10 14:35:00
9:55 AM,33.8,21.2,60,30.13,10.0,NE,11.5,16.1,N/A,,Overcast,40,2013-04-10 14:55:00
10:15 AM,35.6,21.2,56,30.12,10.0,NE,10.4,-,N/A,,Overcast,50,2013-04-10 15:15:00
10:35 AM,35.6,21.2,56,30.12,10.0,NE,11.5,18.4,N/A,,Overcast,50,2013-04-10 15:35:00
10:55 AM,35.6,23.0,60,30.13,10.0,NE,10.4,18.4,N/A,,Overcast,40,2013-04-10 15:55:00
11:15 AM,35.6,23.0,60,30.13,10.0,NE,12.7,-,N/A,,Overcast,40,2013-04-10 16:15:00
11:35 AM,35.6,23.0,60,30.13,10.0,NE,11.5,-,N/A,,Overcast,40,2013-04-10 16:35:00
11:55 AM,37.4,23.0,56,30.12,10.0,NE,10.4,18.4,N/A,,Overcast,50,2013-04-10 16:55:00
12:15 PM,37.4,21.2,52,30.10,10.0,NE,13.8,21.9,N/A,,Overcast,50,2013-04-10 17:15:00
12:35 PM,39.2,23.0,52,30.09,10.0,NE,17.3,21.9,N/A,,Overcast,50,2013-04-10 17:35:00
12:55 PM,39.2,23.0,52,30.08,10.0,NE,18.4,25.3,N/A,,Overcast,40,2013-04-10 17:55:00
1:15 PM,39.2,23.0,52,30.07,10.0,NE,16.1,23.0,N/A,,Overcast,50,2013-04-10 18:15:00
1:35 PM,41.0,21.2,45,30.08,10.0,NE,16.1,21.9,N/A,,Overcast,50,2013-04-10 18:35:00
1:55 PM,41.0,21.2,45,30.11,10.0,East,11.5,-,N/A,,Overcast,80,2013-04-10 18:55:00
2:15 PM,41.0,21.2,45,30.11,10.0,NE,13.8,18.4,N/A,,Overcast,50,2013-04-10 19:15:00
2:35 PM,41.0,21.2,45,30.12,10.0,NE,11.5,19.6,N/A,,Overcast,40,2013-04-10 19:35:00
2:55 PM,41.0,21.2,45,30.12,10.0,NE,8.1,-,N/A,,Overcast,50,2013-04-10 19:55:00
3:15 PM,41.0,23.0,49,30.11,10.0,NE,11.5,-,N/A,,Overcast,50,2013-04-10 20:15:00
3:35 PM,41.0,23.0,49,30.11,10.0,NNE,6.9,-,N/A,,Overcast,30,2013-04-10 20:35:00
3:55 PM,41.0,23.0,49,30.11,10.0,NNE,8.1,-,N/A,,Overcast,30,2013-04-10 20:55:00
4:15 PM,41.0,24.8,53,30.10,10.0,NNE,10.4,-,N/A,,Overcast,20,2013-04-10 21:15:00
4:35 PM,39.2,26.6,61,30.08,10.0,NE,11.5,-,N/A,,Overcast,40,2013-04-10 21:35:00
4:55 PM,41.0,24.8,53,30.07,10.0,NE,13.8,19.6,N/A,,Overcast,50,2013-04-10 21:55:00
5:15 PM,41.0,24.8,53,30.07,10.0,NE,13.8,-,N/A,,Overcast,40,2013-04-10 22:15:00
5:35 PM,41.0,24.8,53,30.05,10.0,NE,13.8,-,N/A,,Overcast,40,2013-04-10 22:35:00
5:55 PM,39.2,26.6,61,30.05,10.0,NE,10.4,16.1,N/A,,Overcast,50,2013-04-10 22:55:00
6:15 PM,39.2,26.6,61,30.04,10.0,NE,10.4,-,N/A,,Overcast,40,2013-04-10 23:15:00
6:35 PM,37.4,26.6,65,30.04,10.0,NE,9.2,-,N/A,,Overcast,50,2013-04-10 23:35:00
6:55 PM,37.4,26.6,65,30.04,10.0,ENE,8.1,-,N/A,,Overcast,70,2013-04-10 23:55:00
7:15 PM,37.4,26.6,65,30.03,10.0,NE,6.9,-,N/A,,Overcast,50,2013-04-11 00:15:00
7:35 PM,37.4,26.6,65,30.01,10.0,NE,9.2,-,N/A,,Overcast,40,2013-04-11 00:35:00
7:55 PM,37.4,26.6,65,30.01,10.0,NE,9.2,-,N/A,,Overcast,40,2013-04-11 00:55:00
8:15 PM,37.4,26.6,65,29.99,10.0,NE,8.1,-,N/A,,Overcast,40,2013-04-11 01:15:00
8:35 PM,37.4,24.8,60,29.99,10.0,NE,9.2,-,N/A,,Overcast,40,2013-04-11 01:35:00
8:55 PM,37.4,24.8,60,29.98,10.0,NE,11.5,17.3,N/A,,Overcast,50,2013-04-11 01:55:00
9:15 PM,35.6,23.0,60,29.98,10.0,NE,16.1,20.7,N/A,,Overcast,50,2013-04-11 02:15:00
9:35 PM,35.6,23.0,60,29.97,10.0,NE,13.8,19.6,N/A,,Overcast,50,2013-04-11 02:35:00
9:55 PM,35.6,24.8,65,29.98,10.0,NE,12.7,16.1,N/A,,Overcast,50,2013-04-11 02:55:00
10:15 PM,37.4,23.0,56,29.98,10.0,ENE,12.7,20.7,N/A,,Overcast,60,2013-04-11 03:15:00
10:35 PM,35.6,23.0,60,29.98,10.0,ENE,13.8,18.4,N/A,,Overcast,60,2013-04-11 03:35:00
10:55 PM,35.6,23.0,60,29.97,10.0,NE,10.4,20.7,N/A,,Overcast,50,2013-04-11 03:55:00
11:15 PM,35.6,23.0,60,29.97,10.0,ENE,13.8,-,N/A,,Overcast,60,2013-04-11 04:15:00
11:35 PM,35.6,23.0,60,29.98,10.0,NE,9.2,16.1,N/A,,Overcast,50,2013-04-11 04:35:00
11:55 PM,35.6,23.0,60,29.98,10.0,NE,6.9,-,N/A,,Overcast,40,2013-04-11 04:55:00